CZ-6A DEB, 54993

Orbit data source: Space-Track

CZ-6A DEB, 54993 is space debris in SSO originally from a launch on Fri, 11 Nov 2022 UTC launched from the Taiyaun Space Center, China (TSC). Debris objects in space refer to the collection of defunct objects orbiting the Earth. Examples of debris include non-operational satellites, rocket bodies, and fragments generated from explosions, collisions, or faulty payload assembly.

Loading next visibility...
Identifier
54993, 2022-151UJ
Orbit
SSO
Country
Flag of CNCN / PRC
Related business
Manufacturer
SAST
Mission
Spacecraft
Bus & Motor
Unknown
Mass
Unknown
Launch date (UTC)
2022-11-11 (4 years ago)
Launch vehicle
Unknown
Launch site
Taiyaun Space Center, China (TSC)
Object type
Payload
Rocket body
Debris
Shape & HBR
Unknown shape, 0.1 m
Radar Cross Section
Medium (>0.1 m² and <1 m²)

Expand to show TLE details & history
Last TLE update: 2 days ago

TLE from 2 days ago
0 CZ-6A DEB
1 54993U 22151UJ  26171.41978247  .00000559  00000-0  33086-3 0  9992
2 54993  98.8481 171.9834 0049994 334.3183  25.5506 14.11162336184232
Epoch: 2026-06-20T10:04Z
TLE epoch observation values (Epoch: 2026-06-20T10:04:29.205Z)
Latitude
-0.00006°
Longitude
112.22705°
Altitude
825.696 km
Speed
7.457 km/s
True Right ascension
11h 27m 56s
True Declination
0° 00' 00"
Sunlit
Object was in daylight at epoch
Visualization orbit readout
Latitude
Unknown
Longitude
Unknown
Altitude
Unknown
Speed
Unknown
Apparent Right ascension
Unknown
Apparent Declination
Unknown
Sunlit
N/A
Visualization observer readout
Local Sidereal Time
23:07:26
Azimuth
Unknown
Elevation
Unknown
Doppler factor
Unknown
Orbital elements
Apogee altitude
888.723 km
Perigee altitude
816.425 km
Semi-major axis
7,230.711 km
Eccentricity
0.005
Inclination
98.8481°
RAAN
171.9834°
Arg. of periapsis
334.3183°
True anomaly
25.79909°
Mean anomaly
25.5506°
Eccentric anomaly
25.67471°
Mean motion
3.52998 °/min
Orbital period
101.98 mins
BSTAR
0.00033086
Loading maneuver chart data...
Computing Atmospheric mass density...

Documentation

Showing up to 5 results
|